Change the Weather History Date:

Tuesday, September 2, 2014

  Actual Average (KDRO) Record (KDRO)
Temperature  
Mean Temperature 64 °F 63 °F  
Max Temperature 82 °F 80 °F 90 °F (1982)
Min Temperature 45 °F 47 °F 41 °F (1976)
Degree Days  
Heating Degree Days 2 2  
Month to date heating degree days 4  
Since 1 July heating degree days 33  
Cooling Degree Days 0 1  
Month to date cooling degree days 2  
Year to date cooling degree days 239  
Growing Degree Days 14 (Base 50)    
Moisture  
Dew Point 27 °F    
Average Humidity 30    
Maximum Humidity 58    
Minimum Humidity 8    
Precipitation  
Precipitation 0.00 in 0.06 in 0.25 in (1987)
Month to date precipitation 0.12  
Year to date precipitation 10.09  
Sea Level Pressure  
Sea Level Pressure 30.26 in    
Wind  
Wind Speed 2 mph (SW)    
Max Wind Speed 16 mph    
Max Gust Speed 24 mph    
Visibility 10 miles    
Events Thunderstorm    
T = Trace of Precipitation, MM = Missing Value Source: NWS Daily Summary

Daily Weather History Graph

Daily Weather History Graph

Search for Another Location

Airport or City:

Trip Planner

Search our weather history database for the weather conditions in past years. The results will help you decide how hot, cold, wet, or windy it might be!

Date:

Astronomy

Sep. 02, 2014 Rise Set
Actual Time 6:39 AM MDT 7:35 PM MDT
Civil Twilight 6:13 AM MDT 8:01 PM MDT
Nautical Twilight 5:41 AM MDT 8:33 PM MDT
Astronomical Twilight 5:08 AM MDT 9:06 PM MDT
Moon 2:17 PM MDT (9/2) No Moon Set
Length of Visible Light 13h 48m
Length of Day
12h 55m
First Quarter, 53% of the Moon is Illuminated
Sep 2
First Quarter
Sep 8
Full
Sep 15
Last Quarter
Sep 24
New
Oct 1
First Quarter

Hourly Weather History & Observations

Time (MDT) Temp. Windchill Dew Point Humidity Pressure Visibility Wind Dir Wind Speed Gust Speed Precip Events Conditions
12:15 AM 50.4 °F - 31.5 °F 48% 30.28 in 10.0 mi Calm Calm - N/A   Clear
12:35 AM 51.6 °F - 31.1 °F 45% 30.28 in 10.0 mi Calm Calm - N/A   Clear
12:55 AM 51.4 °F - 30.4 °F 44% 30.27 in 10.0 mi Calm Calm - N/A   Clear
1:15 AM 51.3 °F - 31.5 °F 47% 30.27 in 10.0 mi Calm Calm - N/A   Clear
1:35 AM 48.6 °F - 30.6 °F 50% 30.27 in 10.0 mi Calm Calm - N/A   Clear
1:55 AM 50.2 °F - 30.6 °F 47% 30.27 in 10.0 mi Calm Calm - N/A   Clear
2:15 AM 48.9 °F - 31.5 °F 51% 30.27 in 10.0 mi Calm Calm - N/A   Clear
2:35 AM 47.5 °F - 32.0 °F 55% 30.27 in 10.0 mi Calm Calm - N/A   Clear
2:55 AM 48.0 °F - 32.0 °F 54% 30.27 in 10.0 mi Calm Calm - N/A   Clear
3:15 AM 47.3 °F - 32.9 °F 57% 30.27 in 10.0 mi Calm Calm - N/A   Clear
3:35 AM 49.8 °F - 32.9 °F 52% 30.27 in 10.0 mi Calm Calm - N/A   Clear
3:55 AM 49.8 °F - 32.5 °F 51% 30.27 in 10.0 mi Calm Calm - N/A   Clear
4:15 AM 45.7 °F - 31.1 °F 57% 30.27 in 10.0 mi Calm Calm - N/A   Clear
4:35 AM 45.3 °F - 30.9 °F 57% 30.27 in 10.0 mi Calm Calm - N/A   Clear
4:55 AM 45.7 °F 44.4 °F 31.1 °F 57% 30.28 in 10.0 mi NW 3.5 mph - N/A   Clear
5:15 AM 46.9 °F - 31.5 °F 55% 30.28 in 10.0 mi Calm Calm - N/A   Clear
5:35 AM 45.5 °F - 31.1 °F 57% 30.29 in 10.0 mi Calm Calm - N/A   Clear
5:55 AM 45.7 °F - 30.9 °F 56% 30.28 in 10.0 mi Calm Calm - N/A   Clear
6:15 AM 48.2 °F - 30.4 °F 50% 30.29 in 10.0 mi Calm Calm - N/A   Clear
6:35 AM 50.0 °F - 30.6 °F 47% 30.29 in 10.0 mi Calm Calm - N/A   Clear
6:55 AM 46.0 °F - 32.0 °F 58% 30.30 in 10.0 mi Calm Calm - N/A   Clear
7:15 AM 46.2 °F - 32.4 °F 58% 30.31 in 10.0 mi Calm Calm - N/A   Clear
7:35 AM 47.5 °F - 33.3 °F 58% 30.31 in 10.0 mi Calm Calm - N/A   Clear
7:55 AM 53.6 °F - 32.5 °F 45% 30.32 in 10.0 mi Calm Calm - N/A   Clear
8:15 AM 57.0 °F - 34.0 °F 42% 30.32 in 10.0 mi Calm Calm - N/A   Clear
8:35 AM 59.4 °F - 30.6 °F 34% 30.33 in 10.0 mi Calm Calm - N/A   Clear
8:55 AM 62.1 °F - 30.6 °F 31% 30.33 in 10.0 mi Calm Calm - N/A   Clear
9:15 AM 64.4 °F - 30.0 °F 28% 30.33 in 10.0 mi Calm Calm - N/A   Clear
9:35 AM 66.0 °F - 31.1 °F 27% 30.33 in 10.0 mi Calm Calm - N/A   Clear
9:55 AM 67.3 °F - 31.5 °F 26% 30.34 in 10.0 mi Calm Calm - N/A   Clear
10:15 AM 69.3 °F - 29.7 °F 23% 30.33 in 10.0 mi Calm Calm - N/A   Clear
10:35 AM 71.8 °F - 31.1 °F 22% 30.33 in 10.0 mi Calm Calm - N/A   Clear
10:55 AM 73.8 °F - 29.8 °F 20% 30.33 in 10.0 mi Calm Calm - N/A   Clear
11:15 AM 74.5 °F - 26.4 °F 17% 30.33 in 10.0 mi South 8.1 mph - N/A   Clear
11:35 AM 75.2 °F - 27.0 °F 17% 30.32 in 10.0 mi South 4.6 mph - N/A   Clear
11:55 AM 76.6 °F - 25.9 °F 15% 30.31 in 10.0 mi South 6.9 mph - N/A   Clear
12:15 PM 77.7 °F - 23.7 °F 14% 30.31 in 10.0 mi SSW 9.2 mph - N/A   Clear
12:35 PM 77.9 °F - 22.5 °F 13% 30.29 in 10.0 mi SSW 5.8 mph 16.1 mph N/A   Clear
12:55 PM 79.7 °F - 22.3 °F 12% 30.28 in 10.0 mi SW 10.4 mph 16.1 mph N/A   Clear
1:15 PM 80.6 °F - 21.2 °F 11% 30.28 in 10.0 mi SSW 10.4 mph 20.7 mph N/A   Clear
1:35 PM 80.4 °F - 19.6 °F 10% 30.27 in 10.0 mi WSW 8.1 mph 20.7 mph N/A Thunderstorm Clear
1:55 PM 79.9 °F - 20.1 °F 11% 30.27 in 10.0 mi SW 6.9 mph 19.6 mph N/A   Clear
2:15 PM 80.6 °F - 21.2 °F 11% 30.26 in 10.0 mi WSW 11.5 mph - N/A   Clear
2:35 PM 82.2 °F - 19.6 °F 10% 30.25 in 10.0 mi WSW 11.5 mph 24.2 mph N/A   Clear
2:55 PM 82.6 °F - 13.8 °F 8% 30.24 in 10.0 mi WSW 12.7 mph 19.6 mph N/A   Clear
3:15 PM 82.6 °F - 17.8 °F 9% 30.22 in 10.0 mi SW 10.4 mph 21.9 mph N/A   Clear
3:35 PM 82.6 °F - 16.9 °F 9% 30.22 in 10.0 mi SW 10.4 mph 21.9 mph N/A   Clear
3:55 PM 82.9 °F - 18.5 °F 9% 30.21 in 10.0 mi SW 12.7 mph 20.7 mph N/A   Scattered Clouds
4:15 PM 81.9 °F - 17.6 °F 9% 30.21 in 10.0 mi SW 16.1 mph 23.0 mph N/A   Scattered Clouds
4:55 PM 82.6 °F - 19.9 °F 10% 30.20 in 10.0 mi SW 11.5 mph 23.0 mph N/A   Clear
5:15 PM 82.9 °F - 20.5 °F 10% 30.19 in 10.0 mi SW 13.8 mph 18.4 mph N/A   Clear
5:35 PM 81.5 °F - 19.0 °F 10% 30.19 in 10.0 mi SW 10.4 mph 17.3 mph N/A   Clear
5:55 PM 81.7 °F - 20.3 °F 10% 30.19 in 10.0 mi SW 10.4 mph 16.1 mph N/A   Clear
6:15 PM 81.1 °F - 20.7 °F 11% 30.19 in 10.0 mi SW 9.2 mph - N/A   Scattered Clouds
6:35 PM 80.2 °F - 20.1 °F 11% 30.19 in 10.0 mi SW 9.2 mph - N/A   Clear
6:55 PM 80.1 °F - 20.7 °F 11% 30.19 in 10.0 mi SW 11.5 mph - N/A   Clear
7:15 PM 78.8 °F - 22.3 °F 12% 30.19 in 10.0 mi SW 4.6 mph - N/A   Clear
7:35 PM 77.7 °F - 20.7 °F 12% 30.19 in 10.0 mi SW 5.8 mph - N/A   Clear
7:55 PM 73.0 °F - 25.9 °F 17% 30.20 in 10.0 mi WSW 3.5 mph - N/A   Clear
8:15 PM 71.2 °F - 24.6 °F 17% 30.20 in 10.0 mi Calm Calm - N/A   Clear
8:35 PM 63.1 °F - 28.4 °F 27% 30.21 in 10.0 mi Calm Calm - N/A   Clear
8:55 PM 61.3 °F - 27.7 °F 28% 30.21 in 10.0 mi Calm Calm - N/A   Clear
9:15 PM 63.7 °F - 27.9 °F 26% 30.22 in 10.0 mi Calm Calm - N/A   Clear
9:35 PM 61.9 °F - 26.8 °F 26% 30.22 in 10.0 mi ENE 3.5 mph - N/A   Clear
9:55 PM 60.1 °F - 27.7 °F 29% 30.22 in 10.0 mi NNE 3.5 mph - N/A   Clear
10:15 PM 60.6 °F - 27.3 °F 28% 30.22 in 10.0 mi NE 4.6 mph - N/A   Scattered Clouds
10:35 PM 61.7 °F - 27.1 °F 27% 30.22 in 10.0 mi Calm Calm - N/A   Mostly Cloudy
10:55 PM 60.4 °F - 27.5 °F 29% 30.22 in 10.0 mi NE 3.5 mph - N/A   Scattered Clouds
11:15 PM 58.5 °F - 27.3 °F 30% 30.22 in 10.0 mi Calm Calm - N/A   Scattered Clouds
11:35 PM 59.4 °F - 27.9 °F 30% 30.22 in 10.0 mi Calm Calm - N/A   Scattered Clouds
11:55 PM 56.8 °F - 28.4 °F 34% 30.22 in 10.0 mi Calm Calm - N/A   Clear